FW4822 Weather Reports


Display with metric or nautical units.
time (UTC)temp
F
wind
direction
speed
MPH
gust
MPH
rain 1hr
in
rain 24hr
in
rain mn
in
humidity
%
barometer
mb
20260509221556 54 191 0.0 5.0 0.00 0.68 0.43 94 1007.5
20260509220106 54 273 1.0 9.0 0.00 0.68 0.43 96 1007.6
20260509214558 53 280 0.0 5.0 0.00 0.68 0.43 97 1007.6
20260509213153 52 229 2.0 6.0 0.00 0.68 0.43 97 1007.9
20260509211506 53 269 1.0 4.0 0.00 0.68 0.43 97 1007.8
20260509210107 52 229 3.0 7.0 0.00 0.68 0.43 97 1007.9
20260509204559 51 273 0.0 5.0 0.00 0.68 0.43 97 1007.8
20260509203157 50 288 0.0 4.0 0.00 0.68 0.43 97 1008.3
20260509201543 51 209 0.0 5.0 0.00 0.68 0.43 97 1008.3
20260509200043 50 241 0.0 4.0 0.01 0.68 0.43 97 1008.4
20260509194539 50 166 2.0 7.0 0.01 0.68 0.43 97 1008.6
20260509193139 50 268 1.0 8.0 0.02 0.69 0.43 97 1008.6
20260509191545 50 238 3.0 7.0 0.04 0.69 0.43 97 1008.6
20260509190044 49 256 2.0 7.0 0.07 0.68 0.42 96 1008.6
20260509184551 49 242 0.0 6.0 0.11 0.68 0.42 97 1008.7
20260509183141 49 230 4.0 9.0 0.11 0.67 0.41 97 1008.6
20260509181552 49 243 3.0 8.0 0.13 0.66 0.40 96 1008.7
20260509180046 49 234 1.0 7.0 0.10 0.62 0.36 96 1008.9
20260509174541 48 230 3.0 6.0 0.07 0.56 0.31 97 1008.7
20260509173138 48 221 3.0 10.0 0.07 0.56 0.30 96 1008.7
20260509171533 48 188 3.0 7.0 0.06 0.54 0.28 96 1008.7
20260509170039 48 213 0.0 4.0 0.05 0.52 0.26 97 1008.7
20260509164536 47 206 1.0 7.0 0.03 0.50 0.24 96 1008.7
20260509163128 47 281 1.0 6.0 0.03 0.49 0.23 96 1008.6
20260509161532 47 223 2.0 7.0 0.02 0.48 0.22 96 1008.7
20260509160031 47 221 1.0 7.0 0.01 0.47 0.21 96 1008.8
20260509154523 47 206 0.0 8.0 0.01 0.47 0.21 96 1009.0
20260509153123 47 241 1.0 7.0 0.00 0.46 0.20 96 1009.2
20260509151522 47 175 1.0 10.0 0.00 0.46 0.20 96 1009.2
20260509150021 46 167 2.0 10.0 0.00 0.46 0.20 96 1009.3
20260509144518 46 143 4.0 12.0 0.01 0.46 0.20 96 1009.3
20260509143119 46 206 0.0 11.0 0.02 0.46 0.20 96 1009.2
20260509141520 46 254 2.0 7.0 0.03 0.46 0.20 96 1009.3
20260509140018 46 221 1.0 9.0 0.03 0.46 0.20 96 1009.3
20260509134517 46 192 1.0 7.0 0.04 0.45 0.19 96 1009.6
20260509133116 46 206 2.0 8.0 0.04 0.44 0.18 96 1009.7
20260509131518 46 218 2.0 8.0 0.03 0.43 0.17 96 1009.8
20260509130017 46 192 1.0 9.0 0.04 0.43 0.17 96 1009.8
20260509124516 46 219 2.0 7.0 0.03 0.42 0.16 96 1010.0
20260509123115 45 190 0.0 6.0 0.02 0.41 0.14 96 1010.1
20260509121512 45 200 1.0 7.0 0.02 0.41 0.14 96 1010.0
20260509120007 45 212 0.0 7.0 0.02 0.40 0.13 96 1010.2
20260509114506 45 211 3.0 7.0 0.04 0.40 0.13 96 1010.2
20260509113106 45 203 0.0 4.0 0.06 0.40 0.13 96 1010.3
20260509111507 45 215 0.0 5.0 0.06 0.39 0.12 96 1010.5
20260509110006 45 202 2.0 6.0 0.07 0.38 0.11 96 1010.4
20260509104508 45 211 1.0 8.0 0.05 0.36 0.09 96 1010.4
20260509103105 45 218 2.0 8.0 0.03 0.34 0.07 96 1010.5
20260509101503 45 216 1.0 6.0 0.03 0.33 0.06 96 1010.3
20260509100100 45 195 1.0 8.0 0.01 0.31 0.04 96 1010.2
20260509094600 45 190 0.0 2.0 0.01 0.31 0.04 96 1010.2
20260509093059 45 178 0.0 3.0 0.01 0.31 0.04 96 1010.3
20260509091627 45 177 0.0 3.0 0.00 0.30 0.03 96 1010.4
20260509090055 45 177 1.0 4.0 0.00 0.30 0.03 96 1010.6
20260509084553 45 165 0.0 3.0 0.01 0.30 0.03 96 1010.6
20260509083054 45 164 0.0 4.0 0.02 0.30 0.03 96 1010.6
20260509081550 45 154 0.0 3.0 0.02 0.30 0.03 96 1010.8
20260509080059 45 198 0.0 6.0 0.02 0.30 0.03 96 1010.8
20260509074553 45 222 0.0 2.0 0.02 0.28 0.02 96 1010.8
20260509073115 45 225 0.0 0.0 0.02 0.28 0.01 96 1010.9
20260509071553 45 225 0.0 6.0 0.03 0.28 0.01 96 1011.1
20260509070058 45 213 1.0 4.0 0.03 0.28 0.01 95 1011.1
20260509064549 45 234 1.0 5.0 0.03 0.27 0.00 96 1011.3
20260509063046 45 296 0.0 0.0 0.03 0.26 0.26 95 1011.8
20260509061539 45 296 0.0 0.0 0.04 0.26 0.26 95 1012.0
20260509060047 45 296 0.0 0.0 0.04 0.25 0.25 95 1012.1
20260509054538 45 296 0.0 0.0 0.03 0.24 0.24 95 1012.3
20260509053038 45 296 0.0 0.0 0.04 0.23 0.23 95 1012.4
20260509051541 45 296 0.0 0.0 0.04 0.22 0.22 95 1012.5
20260509050041 45 296 0.0 0.0 0.05 0.21 0.21 95 1012.5
20260509044541 45 297 0.0 5.0 0.07 0.21 0.21 95 1012.5
20260509043046 45 281 2.0 7.0 0.05 0.19 0.19 95 1012.8
20260509041537 45 262 2.0 6.0 0.04 0.18 0.18 95 1012.7
20260509040050 45 234 1.0 4.0 0.04 0.16 0.16 95 1012.6
20260509034546 46 223 1.0 3.0 0.05 0.15 0.15 94 1012.6
20260509033037 46 221 1.0 5.0 0.06 0.16 0.14 94 1012.4
20260509031541 46 269 0.0 5.0 0.07 0.16 0.14 94 1012.6
20260509030038 46 261 1.0 7.0 0.05 0.14 0.12 94 1013.0
20260509024537 46 270 0.0 3.0 0.03 0.12 0.10 93 1013.0
20260509023037 46 274 0.0 6.0 0.01 0.18 0.08 92 1012.9
20260509021640 47 282 1.0 5.0 0.01 0.17 0.07 92 1013.0
20260509020040 47 306 2.0 9.0 0.01 0.17 0.07 91 1012.8
20260509014536 47 253 1.0 9.0 0.05 0.17 0.07 91 1012.5
20260509013038 47 267 1.0 6.0 0.05 0.19 0.07 90 1012.2
20260509011553 47 285 2.0 7.0 0.04 0.18 0.06 90 1012.4
20260509010046 48 244 1.0 12.0 0.04 0.18 0.06 88 1012.3
20260509004551 48 287 1.0 7.0 0.00 0.14 0.02 84 1011.9
20260509003041 49 254 1.0 6.0 0.00 0.14 0.02 83 1011.7
20260509001533 49 269 0.0 5.0 0.00 0.14 0.02 82 1011.4
20260509000033 49 265 0.0 6.0 0.00 0.14 0.02 81 1011.5
20260508234532 50 254 2.0 5.0 0.00 0.14 0.02 79 1011.4
20260508233032 51 297 0.0 5.0 0.00 0.14 0.02 77 1011.0
20260508231530 51 248 1.0 5.0 0.00 0.14 0.02 78 1011.0
20260508230029 50 264 1.0 6.0 0.00 0.14 0.02 79 1010.8
20260508224530 51 208 1.0 10.0 0.00 0.14 0.02 74 1011.0